RH
12 12 13 13 14 14 15 15 14 14 20 21 27 31 30 26 32 36 48 70 68 72 67 75 97 97 92 98 95 91 93 90 86 77 67 68 57 59
11 10 10 9 9 10 11 12 13 14 13 16 19 22 27 31 32 29 35 38 41 34 44 76 68 64 62 63 66 68 66 60 46 38 30 25 21 18
12 11 10 9 8 8 8 8 9 11 12 14 13 15 18 25 28 35 37 33 29 31 42 47 47 44 39 43 37 43 40 31 24 20 19 19 19 18
12 11 10 9 9 8 8 8 8 8 8 10 12 13 13 15 18 23 26 33 40 43 41 33 30 29 28 27 25 24 22 21 22 23 23 23 23 22
12 12 10 9 9 8 8 8 8 8 8 8 10 12 12 12 14 16 18 19 20 22 23 25 27 33 40 43 40 36 34 31 28 27 28 29 29 33
12 11 10 9 8 8 8 8 8 8 8 8 9 9 11 12 12 13 15 17 18 18 19 18 17 18 22 32 42 51 50 46 43 42 40 37 35 32
12 10 9 8 8 7 8 8 8 9 9 9 9 9 10 11 12 12 13 14 17 20 21 21 20 17 14 16 18 20 21 22 22 22 22 21 19 19
11 10 9 8 8 7 8 8 9 10 10 10 11 11 11 12 13 14 14 14 16 19 22 25 24 22 18 16 15 15 16 16 16 15 15 15 15 16
10 9 8 8 8 8 8 9 9 10 11 12 12 13 12 13 14 15 16 16 16 19 24 28 29 27 23 20 18 18 18 17 17 17 17 17 17 17
9 8 8 8 8 8 8 9 10 11 12 13 14 15 15 15 15 17 18 19 20 21 24 29 32 32 29 25 22 21 19 18 18 19 19 20 20 21
9 8 8 8 9 9 9 10 11 13 14 14 15 18 18 19 19 19 22 23 24 25 27 30 36 34 32 30 27 28 26 25 24 24 25 25 25 25
11 11 12 12 13 14 12 13 13 16 15 15 16 19 21 23 24 23 25 28 29 29 32 36 39 40 38 36 34 32 31 32 30 30 32 33 33 34
15 17 18 18 17 16 17 16 17 18 17 18 19 21 24 27 27 27 28 33 36 37 36 42 46 49 47 42 40 38 38 37 36 36 36 34 34 35
26 28 28 27 24 20 18 16 18 20 19 21 22 24 28 30 29 26 34 42 42 41 43 48 51 55 54 51 45 46 44 43 41 40 39 40 44 46
36 35 33 30 25 22 21 21 22 23 24 24 25 27 29 30 29 33 40 44 46 47 50 52 52 49 49 50 50 52 52 52 49 50 49 55 58 55
37 36 34 32 30 27 26 27 27 27 27 26 27 32 32 37 39 43 46 49 46 43 47 49 46 46 48 50 50 54 59 57 56 56 61 66 64 60
41 41 38 36 35 37 39 41 42 42 41 42 42 44 44 42 38 39 40 40 38 41 46 51 49 45 47 51 52 58 61 65 71 68 72 75 72 63
81 82 80 79 76 74 75 75 74 72 70 69 67 65 64 63 62 59 58 56 50 47 53 61 53 63 82 82 81 79 74 76 80 84 86 84 78 66
96 94 89 86 83 81 78 75 73 70 69 66 64 63 64 65 68 68 70 69 65 62 53 62 64 84 94 95 94 91 88 86 86 90 91 90 81 71
95 93 90 88 85 82 78 77 75 74 73 68 60 56 54 55 57 61 71 80 84 82 76 71 72 95 96 96 92 91 95 95 93 93 92 88 81 75
87 77 59 48 49 54 53 50 46 46 45 42 42 49 56 60 65 70 74 86 96 96 95 95 97 97 96 95 94 94 95 95 95 95 94 92 84 79
84 57 44 33 30 27 23 20 18 16 17 23 33 41 50 59 64 74 82 90 96 96 96 96 95 96 95 96 96 96 97 95 96 95 95 94 90 86
91 74 45 36 26 28 39 46 34 22 13 16 21 25 35 49 61 71 81 94 100 97 96 96 96 95 96 96 97 96 96 97 97 97 97 96 94 94
Wind_Speed
13 13 14 14 15 16 16 17 18 16 16 19 18 17 17 15 11 9 12 10 11 13 12 12 4 9 11 9 12 15 14 14 18 18 22 22 26 27
14 14 14 15 16 16 17 17 18 19 17 18 19 18 16 16 15 13 11 14 14 14 13 13 11 12 13 15 17 19 21 21 25 26 28 30 30 30
16 16 16 16 17 18 18 19 19 19 19 18 20 19 17 16 15 15 15 14 12 15 17 16 16 17 18 20 23 25 27 27 27 26 27 28 28 27
18 18 18 18 18 19 19 19 20 20 20 19 19 21 20 18 16 15 15 16 16 15 13 15 17 18 19 20 21 22 23 24 24 23 23 24 24 23
20 20 20 20 20 20 20 20 21 22 23 21 20 21 21 20 19 17 16 16 16 17 18 17 16 17 17 18 19 19 19 20 21 21 21 21 21 21
22 22 22 22 23 23 22 22 22 23 24 24 23 22 21 21 20 19 19 19 18 17 18 19 19 19 18 18 19 18 19 21 22 22 23 23 24 24
25 25 25 25 25 26 25 24 24 24 25 25 25 25 23 23 22 21 21 21 19 20 20 19 20 20 20 20 20 20 21 22 21 21 21 22 23 23
28 28 28 28 28 28 28 26 26 26 27 27 26 27 26 25 25 24 23 23 22 21 21 20 21 21 21 21 21 21 22 22 22 23 23 23 24 25
31 31 32 31 31 30 30 29 28 28 29 29 28 28 26 27 26 26 25 25 25 24 24 22 22 22 22 23 23 22 23 23 24 24 24 25 25 26
34 34 34 33 33 33 33 32 31 31 30 30 31 29 28 27 28 27 27 26 26 26 27 26 25 25 25 24 23 24 25 24 25 26 27 27 27 28
35 35 37 36 35 37 38 35 35 33 33 33 32 30 29 29 28 28 28 28 27 26 27 27 26 26 27 27 26 25 26 26 26 27 27 28 28 29
36 37 36 37 37 40 42 40 38 34 37 36 33 32 31 30 30 30 29 28 28 28 27 27 27 28 28 28 28 28 28 28 28 28 29 29 29 29
38 37 38 39 40 42 43 41 37 37 37 38 34 33 33 31 31 32 31 29 29 29 29 29 27 28 29 29 29 29 29 29 29 30 30 31 31 30
36 37 37 38 39 39 40 39 38 38 38 37 35 34 34 33 34 33 30 29 31 31 30 31 29 29 30 29 30 30 31 31 31 31 30 31 30 29
35 35 37 37 37 36 36 36 37 36 36 36 35 35 35 35 34 33 32 32 32 31 31 30 30 30 30 30 30 31 32 31 31 31 31 31 29 28
30 29 29 30 31 32 32 31 33 34 34 33 32 34 34 35 34 34 33 33 33 31 31 30 30 30 30 30 31 32 33 33 31 31 30 30 29 28
28 26 26 27 28 28 28 28 29 29 29 29 30 31 32 33 32 32 32 32 32 31 31 32 32 31 32 33 32 32 33 31 31 30 30 30 31 29
26 25 24 25 25 26 26 26 26 27 26 27 27 28 28 30 31 32 33 33 32 32 34 35 34 34 34 33 32 32 32 30 30 30 30 29 29 31
29 28 27 27 27 27 28 28 28 29 31 31 32 33 34 35 37 38 38 39 38 36 36 37 37 37 36 32 30 32 31 30 29 29 29 28 27 30
35 35 34 34 34 34 35 36 36 37 37 37 38 38 39 39 40 41 42 42 41 40 39 39 40 35 32 32 33 29 30 29 29 29 29 28 27 27
36 34 33 32 32 32 32 33 35 36 37 37 38 39 39 39 40 40 40 40 40 42 43 41 35 34 36 34 32 30 29 29 29 29 29 27 27 27
33 32 32 33 33 32 31 33 34 35 35 36 36 36 37 37 37 37 38 38 39 39 37 35 34 35 37 35 32 32 31 30 29 29 29 27 26 25
35 35 35 32 31 32 35 38 39 39 37 36 36 35 35 35 35 35 35 36 36 36 34 34 33 35 35 34 32 32 32 32 30 29 29 27 26 24
Wind_Direction
305 308 312 317 319 321 326 329 333 337 334 333 334 337 340 342 337 327 304 290 297 298 295 288 345 229 257 274 257 262 257 255 257 262 267 261 260 265
304 306 311 313 313 314 318 321 326 326 331 324 326 330 332 334 334 328 314 304 300 289 293 278 277 268 261 271 271 267 266 265 263 264 267 267 266 267
303 305 307 310 311 313 315 317 319 318 321 320 320 322 323 321 321 319 317 312 306 302 298 288 276 269 262 258 258 259 263 264 267 267 268 268 268 267
297 300 302 305 307 308 311 312 312 312 314 315 313 314 316 318 315 311 308 307 306 301 293 284 281 276 272 267 263 260 262 265 268 268 267 262 261 265
293 296 298 301 301 302 305 307 309 309 309 309 307 306 306 309 309 308 304 298 297 298 299 296 289 282 276 272 271 271 269 266 266 266 264 263 263 262
289 291 294 296 297 298 300 301 302 303 304 304 303 301 301 300 300 301 299 298 296 292 291 292 290 287 283 277 273 269 266 266 264 264 265 266 265 264
286 287 289 291 292 293 295 296 298 299 300 299 299 298 296 296 296 296 294 293 291 292 293 291 290 288 284 278 276 273 272 270 270 269 267 266 267 267
282 284 285 286 288 290 290 291 292 295 296 296 295 294 294 293 292 293 292 291 290 288 288 290 291 290 287 282 278 275 272 272 271 271 271 270 270 270
279 281 282 284 285 285 285 286 289 290 292 291 291 289 288 288 288 288 288 288 289 290 289 289 288 287 285 286 285 283 281 280 278 277 275 274 274 273
276 277 278 278 280 281 280 283 284 285 285 284 284 284 284 282 282 283 283 283 285 287 288 289 290 290 287 283 280 280 281 281 281 280 280 280 281 281
276 277 278 280 281 281 281 281 280 281 279 277 277 278 277 277 277 277 277 278 280 281 283 285 286 286 285 285 284 282 281 281 281 281 282 282 282 281
278 278 279 280 279 278 279 281 281 279 275 274 274 273 273 273 273 273 272 274 276 278 279 280 282 284 283 284 284 283 283 284 284 284 284 284 284 284
280 281 280 278 277 277 278 280 280 273 271 271 270 270 270 270 269 269 271 273 276 278 278 278 278 279 280 282 280 279 280 281 282 282 282 283 283 284
278 277 276 276 276 276 277 278 276 272 271 270 269 267 268 268 268 270 273 275 275 276 277 278 280 280 280 279 279 280 281 283 283 282 281 280 280 280
279 277 276 276 276 276 275 273 272 271 270 269 269 268 268 268 271 273 273 274 275 275 275 276 277 277 279 279 279 280 280 280 281 281 280 280 281 281
282 281 278 276 275 275 273 271 270 270 269 268 268 267 267 270 272 274 275 275 275 275 274 273 274 275 276 277 279 280 279 280 279 279 279 280 280 281
285 283 278 275 274 275 275 274 272 272 272 271 269 268 268 270 273 274 275 276 276 274 272 273 273 274 276 277 277 276 277 278 278 277 277 279 280 280
286 284 280 279 277 276 277 278 277 276 275 272 271 272 274 274 275 275 276 277 276 275 273 272 271 273 276 276 276 275 274 274 273 274 276 277 278 281
285 283 282 279 278 279 279 279 279 279 278 278 277 276 275 275 275 275 274 273 272 271 268 267 268 274 276 277 274 275 272 269 271 274 275 276 277 280
285 285 285 282 280 278 277 277 277 278 278 279 279 279 278 277 276 275 273 272 271 270 267 265 265 271 272 273 273 275 273 270 270 271 272 273 276 278
283 284 284 284 281 279 278 278 278 278 277 276 276 278 279 278 276 274 272 271 270 268 267 268 268 264 263 266 269 271 269 268 269 269 268 270 274 279
275 278 281 284 282 281 283 285 284 283 281 280 279 280 280 280 279 276 272 270 271 270 269 264 260 257 259 262 265 264 265 268 268 268 267 268 271 274
276 277 278 281 284 285 287 288 290 287 284 281 280 281 282 282 280 277 274 271 269 268 265 261 258 255 258 260 262 262 262 264 265 265 265 268 271 271